Home   Weather   Rochester   Past weeks

Flag for USA Past Weather in Rochester, New York, USA — Yesterday and Last 2 Weeks

Now
50 °F

Passing clouds.


Feels Like: 44 °F
Forecast: 36 / 47 °F
Wind: 17 mph from West

Location: Greater Rochester International Airport

Current Time: Feb 27, 2017 at 5:49:42 pm

Latest Report: Feb 27, 2017 at 4:54 pm


Visibility: 10 mi

Pressure: 30.27 "Hg

Humidity: 33%

Dew Point: 22 °F

Location of RochesterLocation

Past Weather in Rochester — Graph

°F

Rochester Temperature Yesterday

Maximum temperature yesterday: 35 °F (at 1:54 pm)
Minimum temperature yesterday: 27 °F (at 5:01 am)
Average temperature yesterday: 31 °F

High & Low Weather Summary for the Past Weeks

 TemperatureHumidityPressure
High66 °F (Feb 23, 11:54 am)97% (Feb 12, 4:01 pm)30.40 "Hg (Feb 12, 4:01 pm)
Low18 °F (Feb 14, 4:54 am)33% (Feb 27, 3:54 pm)29.44 "Hg (Feb 15, 8:12 am)
Average39 °F70%29.84 "Hg
* Reported Feb 12 4:01 pm — Feb 27 3:54 pm, Rochester, Weather by CustomWeather, © 2017

Note: Actual official high and low records may vary slightly from our data, if they occured in-between our weather recording intervals... More about our weather records

Advertising

Rochester Weather History for the Previous 24 Hours

Scroll right to see more
 ConditionsComfort  
Time TempWeatherWind HumidityBarometerVisibility
3:54 pm
Mon, Feb 27
51 °FPassing clouds.18 mph33%30.25 "Hg10 mi
2:54 pm51 °FPassing clouds.18 mph35%30.24 "Hg10 mi
1:54 pm51 °FPassing clouds.21 mph38%30.23 "Hg10 mi
12:54 pm50 °FScattered clouds.20 mph39%30.24 "Hg10 mi
11:54 am49 °FPassing clouds.20 mph39%30.26 "Hg10 mi
10:54 am48 °FScattered clouds.21 mph39%30.25 "Hg10 mi
9:54 am46 °FPassing clouds.16 mph40%30.24 "Hg10 mi
8:54 am44 °FPassing clouds.20 mph40%30.22 "Hg10 mi
7:54 am38 °FScattered clouds.9 mph51%30.22 "Hg10 mi
6:54 am33 °FScattered clouds.8 mph56%30.19 "Hg10 mi
5:54 am38 °FClear.12 mph45%30.16 "Hg10 mi
4:54 am38 °FPassing clouds.13 mph45%30.15 "Hg10 mi
3:54 am39 °FPassing clouds.15 mph43%30.13 "Hg10 mi
2:54 am38 °FPassing clouds.17 mph45%30.12 "Hg10 mi
1:54 am37 °FClear.16 mph46%30.11 "Hg10 mi
12:54 am34 °FClear.14 mph52%30.10 "Hg10 mi
11:54 pm
Sun, Feb 26
34 °FPassing clouds.14 mph52%30.11 "Hg10 mi
10:54 pm34 °FPassing clouds.13 mph52%30.11 "Hg10 mi
9:54 pm33 °FPassing clouds.14 mph54%30.11 "Hg10 mi
8:54 pm33 °FPassing clouds.15 mph56%30.11 "Hg10 mi
7:54 pm32 °FClear.10 mph56%30.10 "Hg10 mi
6:54 pm32 °FPassing clouds.12 mph59%30.10 "Hg10 mi
5:54 pm32 °FPassing clouds.9 mph59%30.09 "Hg10 mi
Weather by CustomWeather, © 2017

See weather overviewHow to use our weather pages